Location: Roanoke
(37.2710°N, 79.9420°W)
Time: 01:19:00
(UTC-04:00)

Cosmos 1441 Rocket - Visible Passes

Search period start: 20 April 2018 00:00
Search period end: 30 April 2018 00:00
Orbit: 497 x 543 km, 81.1° (Epoch: 19 April)

Date Brightness Start Highest point End Pass type
(mag) Time Alt. Az. Time Alt. Az. Time Alt. Az.
20 Apr 5.5 21:59:47 13° NE 21:59:47 13° NE 22:00:20 10° NNE visible
20 Apr 6.5 23:34:51 11° NW 23:34:51 11° NW 23:35:06 10° NW visible
21 Apr 5.2 21:45:32 15° NE 21:45:32 15° NE 21:46:31 10° NE visible
21 Apr 6.2 23:20:35 14° NW 23:20:35 14° NW 23:21:43 10° NNW visible
22 Apr 5.0 21:31:12 17° ENE 21:31:12 17° ENE 21:32:40 10° NE visible
22 Apr 5.8 23:06:14 18° WNW 23:06:14 18° WNW 23:08:17 10° NNW visible
23 Apr 4.8 21:16:45 18° ENE 21:16:45 18° ENE 21:18:46 10° NE visible
23 Apr 5.4 22:51:46 21° WNW 22:51:53 21° WNW 22:54:48 10° NNW visible
24 Apr 4.7 21:02:09 16° E 21:02:26 16° E 21:04:50 10° NE visible
24 Apr 5.2 22:37:10 22° W 22:38:09 24° WNW 22:41:16 10° NNW visible
25 Apr 4.9 20:47:23 12° ESE 20:48:47 14° E 20:50:49 10° NE visible
25 Apr 5.0 22:22:24 18° SW 22:24:25 28° WNW 22:27:43 10° NNW visible
26 Apr 5.1 20:33:35 10° ESE 20:35:08 12° E 20:36:41 10° ENE visible
26 Apr 4.8 22:07:23 10° SW 22:10:42 33° WNW 22:14:08 10° N visible
27 Apr 4.5 21:53:29 10° SSW 21:56:59 38° WNW 22:00:32 10° N visible
28 Apr 4.2 21:39:41 10° SSW 21:43:16 45° WNW 21:46:55 10° N visible
29 Apr 3.9 21:25:55 10° SSW 21:29:33 54° W 21:33:16 10° N visible
